Skip Page Navigation
NASA JPL Caltech
NASA Logo - Jet Propulsion Laboratory + View the NASA Portal
+ Near-Earth Object (NEO) Program
Search JPL
JPL Home Earth Solar System Stars & Galaxies Technology
JPL Solar System Dynamics
BODIES ORBITS EPHEMERIDES TOOLS PHYSICAL DATA DISCOVERY FAQ SITE MAP
JPL Small-Body Database Browser
Search: [ help ]  
275677 (2000 RS11)
Classification: Apollo [NEO, PHA]          SPK-ID: 2275677
Ephemeris | Orbit Diagram | Orbital Elements | Physical Parameters | Discovery Circumstances | Close-Approach Data ]

[ hide orbit diagram ]
Orbit Diagram
Note: Make sure you have Java enabled on your browser to see the applet. This applet is provided as a 3D orbit visualization tool. The applet was implemented using 2-body methods, and hence should not be used for determining accurate long-term trajectories (over several years or decades) or planetary encounter circumstances. For accurate long-term ephemerides, please instead use our Horizons system.
Orbit Viewer

Additional Notes: the orbits shown in the applet are color coded. The planets are white lines, and the asteroid/comet is a blue line. The bright white line indicates the portion of the orbit that is above the ecliptic plane, and the darker portion is below the ecliptic plane. Likewise for the asteroid/comet orbit, the light blue indicates the portion above the ecliptic plane, and the dark blue the portion below the ecliptic plane.

Orbit Viewer applet originally written and kindly provided by Osamu Ajiki (AstroArts), and further modified by Ron Baalke (JPL).


Orbital Elements at Epoch 2456400.5 (2013-Apr-18.0) TDB
Reference: JPL 36 (heliocentric ecliptic J2000)
 Element Value Uncertainty (1-sigma)   Units 
e .3209375543763191 1.8967e-07  
a 1.281449413175986 1.647e-08 AU
q .8701841724543158 2.4079e-07 AU
i 17.0912408275588 1.8786e-05 deg
node 172.2319951897448 3.2841e-05 deg
peri 301.7450669647918 5.6116e-05 deg
M 168.6037221430774 8.8259e-05 deg
tp 2456152.349426110764
(2012-Aug-12.84942611)
0.00012548 JED
period 529.8471793185901
1.45
1.0215e-05
2.797e-08
d
yr
n .6794411937098126 1.3099e-08 deg/d
Q 1.692714653897656 2.1756e-08 AU
  Orbit Determination Parameters
   # obs. used (total)      113  
   data-arc span      3627 days (9.93 yr)  
   first obs. used      2000-09-02  
   last obs. used      2010-08-08  
   planetary ephem.      DE405  
   SB-pert. ephem.      SB405-CPV-2  
   condition code      0  
   fit RMS      .70455  
   data source      ORB  
   producer      Otto Matic  
   solution date      2013-Apr-29 15:41:16  

Additional Information
 Earth MOID = .00857693 AU 
 T_jup = 4.959 
[ show covariance matrix ]

Ephemeris | Orbit Diagram | Orbital Elements | Physical Parameters | Discovery Circumstances | Close-Approach Data ]

Physical Parameter Table
Parameter Symbol Value Units Sigma Reference Notes
absolute magnitude H 18.705 mag 1.0524 36 autocmod 2.5c

275677 (2000 RS11)          Discovered 2000-Sep-02 by LINEAR at Socorro (704)
Reference: 20110517/Numbers.arcLast Updated: 2011-05-20

[ show close-approach data ]
Ephemeris | Orbit Diagram | Orbital Elements | Physical Parameters | Discovery Circumstances | Close-Approach Data ]
ABOUT SSD CREDITS/AWARDS PRIVACY/COPYRIGHT GLOSSARY LINKS
FirstGov 2013-May-23 14:49 UT
(server date/time)  
NASA Home Page
Site Manager:   Donald K. Yeomans
Webmaster  Alan B. Chamberlin